www.pogodaiklimat.ru

Погода и климат >> Архив погоды >> Таиланд >> Бангкок 2


ПОГОДА в Бангкоке 2

  • Прогноз погоды в Бангкоке 2
  • Монитор погоды в Бангкоке 2

АРХИВ ПОГОДЫ в Бангкоке 2

Время (UTC), дата Ветер
(напр.,м/с)
 
Видим.   Явления Облачность Т
(С)
Тd
(С)
f
(%)
Тe
(С)
Тes
(С)
Комфортность P
(гПа)
Po
(гПа)
Тmin
(С)
Tmax
(С)
R
(мм)
R24
(мм)
S
(см)
09 19.06 ЮЗ 3 10 км 8/3 600 м
[Cu med, cong Ac lent Cs]
+32.2 +25.0 66 +46 +49 опасность
перегрева
1005.5 1004.8
12 19.06 ЮЗ 3 10 км 6/3 600 м
[Cu med, cong Cs]
+30.1 +25.0 74 +43 +43 опасность
перегрева
1006.1 1005.4 +33.1
00 20.06 штиль 0 10 км 8/3 600 м
[Sc Ac lent Cs]
+28.0 +26.3 91 +43 +44 опасность
перегрева
1008.1 1007.4 +27.1
03 20.06 ЮЗ 2 10 км 10/5 600 м
[Cu med, cong Ac cuf Cs]
+33.0 +24.8 62 +46 +50 опасность
перегрева
1008.4 1007.8
06 20.06 Ю 3 10 км 10/5 600 м
[Cu med, cong Ac As Cs]
+32.2 +24.5 64 +45 +49 опасность
перегрева
1007.4 1006.7
09 20.06 Ю 4 10 км 10/5 600 м
[Cu med, cong Ac As Cs]
+34.2 +25.5 61 +49 +50 опасность
перегрева
1005.4 1004.7
12 20.06 Ю 3 10 км 8/3 600 м
[Cu med, cong Ac lent Cs]
+31.3 +25.5 71 +46 +46 опасность
перегрева
1005.9 1005.2 +34.7
00 21.06 штиль 0 10 км 6/3 600 м
[Cu med, cong Cs]
+28.4 +24.2 78 +40 +41 очень
душно
1007.5 1006.8 +28.1
03 21.06 Ю 2 10 км 5/3 600 м
[Cu med, cong Cs]
+33.0 +24.2 60 +45 +55 опасность
перегрева
1008.4 1007.8
06 21.06 ЮЗ 3 10 км 8/3 600 м
[Cu med, cong Cs]
+35.5 +24.3 52 +47 +58 опасность
перегрева
1006.3 1005.6
09 21.06 ЮЗ 4 10 км 10/4 600 м
[Cu med, cong Ac As Cs]
+35.5 +25.1 55 +49 +51 опасность
перегрева
1004.5 1003.8
12 21.06 Ю 3 10 км 3/3 600 м
[Cu med, cong Cs]
+33.5 +25.5 63 +48 +48 опасность
перегрева
1004.9 1004.2 +36.8
00 22.06 штиль 0 10 км 3/1 600 м
[Cu hum Cs]
+29.0 +24.7 78 +41 +43 опасность
перегрева
1006.4 1005.7 +28.3
03 22.06 З 3 10 км 3/1 600 м
[Cu hum Cs]
+33.5 +23.9 57 +45 +56 опасность
перегрева
1007.8 1007.2
06 22.06 З 2 10 км 3/1 600 м
[Cu med, cong Cs]
+36.8 +24.4 49 +49 +67 опасность
перегрева
1004.6 1004.0
09 22.06 З 4 10 км 6/3 600 м
[Cu med, cong Cs]
+35.5 +24.2 52 +47 +51 опасность
перегрева
1002.2 1001.5
12 22.06 штиль 0 10 км 6/3 600 м
[Cu med, cong Cs]
+33.0 +24.5 61 +46 +46 опасность
перегрева
1002.3 1001.6 +37.2
00 23.06 штиль 0 10 км 4/1 600 м
[Cu med, cong Cs]
+29.6 +25.2 77 +43 +45 опасность
перегрева
1005.7 1005.0 +29.0
03 23.06 штиль 0 10 км 4/1 600 м
[Cu med, cong Cs]
+34.0 +24.3 57 +46 +64 опасность
перегрева
1006.8 1006.1
06 23.06 З 2 10 км 5/3 600 м
[Cu med, cong Cs]
+37.0 +24.6 49 +49 +63 опасность
перегрева
1002.0 1001.3
09 23.06 З 4 10 км 9/3 600 м
[Cu Sc Ac As Cs]
+33.0 +24.5 61 +46 +48 опасность
перегрева
1001.1 1000.5
12 23.06 штиль 0 10 км 9/3 600 м
[Cu Sc Ac As Cs]
+31.0 +23.8 66 +43 +43 опасность
перегрева
1001.8 1001.2 +37.5
00 24.06 штиль 0 10 км 10/3 600 м
[Cu med, cong Ac As Cs]
+29.0 +26.2 85 +44 +45 опасность
перегрева
1006.5 1005.8 +28.5
03 24.06 ЮВ 2 10 км {дождь} 9/3 600 м
[Cu med, cong Ac As Cs]
+30.5 +26.3 78 +46 +52 опасность
перегрева
1007.7 1007.0 1
06 24.06 Ю 4 10 км {дождь} 8/3 600 м
[Cu med, cong Cs]
+33.5 +25.8 64 +49 +57 опасность
перегрева
1004.7 1004.0 1
09 24.06 Ю 5 10 км 9/3 600 м
[Cu med, cong Ac As Cs]
+31.0 +26.2 76 +47 +49 опасность
перегрева
1003.9 1003.2
12 24.06 Ю 3 10 км 10/3 600 м
[Cu Sc Ac As Cs]
+30.0 +25.8 78 +45 +45 опасность
перегрева
1005.0 1004.3 +34.0
00 25.06 штиль 0 8000 м дымка 10/3 600 м
[Cu Sc Ac As Cs]
+26.5 +25.5 94 +39 +39 очень
душно
1009.0 1008.3 +26.0 11
03 25.06 штиль 0 10 км 10/3 600 м
[Cu Sc Ac As Cs]
+30.0 +25.8 78 +45 +52 опасность
перегрева
1009.6 1008.9
06 25.06 ЮЗ 2 10 км 9/3 600 м
[Cu med, cong Ac As Cs]
+32.0 +25.7 69 +47 +55 опасность
перегрева
1007.6 1006.9
09 25.06 ЮЗ 4 10 км 8/3 600 м
[Cu med, cong Cs]
+32.5 +25.9 68 +48 +51 опасность
перегрева
1005.9 1005.3
12 25.06 ЮЗ 4 10 км 10/3 600 м
[Cu Sc Ac As Cs]
+29.0 +24.7 78 +41 +41 опасность
перегрева
1006.8 1006.1 +33.0
00 26.06 штиль 0 10 км 4/1 600 м
[Cu hum Ac lent Cs]
+27.5 +24.6 84 +39 +40 очень
душно
1009.2 1008.5 +27.0
03 26.06 ЮЗ 3 10 км 4/1 600 м
[Cu med, cong Cs]
+31.5 +25.1 69 +45 +56 опасность
перегрева
1009.6 1008.9
06 26.06 ЮЗ 4 10 км 8/3 600 м
[Cu med, cong Cs]
+33.0 +25.3 64 +47 +56 опасность
перегрева
1007.3 1006.6

 

Местоположение метеостанции Бангкок 2 (Таиланд): широта 13.70 долгота 100.57 высота над уровнем моря 6 м.

В архиве по умолчанию представлена погода в Бангкоке 2 за последнюю неделю. Архивные данные за месяц целиком и за предыдущие месяцы, начиная с января 2011 года, Вы можете получить, выбрав интересующий диапазон дат из раскрывающегося списка и нажав кнопку "Ввод!".


*Определитесь, кто Вы:
робот инопланетянин человек

Внимание! Время в таблицах - всемирное. Для получения местного времени необходимо прибавить поправку, которая равна 7 ч.

Смотрите также архив погоды в соседних городах и на ближайших метеорологических станциях:

Погода в Бангкоке (Таиланд) (4 км)
Погода в Бангна Агромете (Таиланд) (6 км)
Погода в Аэропорту Суварнабхуми (Таиланд) (21 км)
Погода в Дон Муанг (Таиланд) (25 км)
Погода в Самутрудкан Агромете (Таиланд) (28 км)
Погода в Бангкок Пилот (Таиланд) (36 км)
Погода в Патхумтхани (Таиланд) (45 км)
Погода в Чонбури (Таиланд) (58 км)
Погода в Ратбури (Таиланд) (58 км)
Погода на Ко Сичан (Таиланд) (64 км)

Пояснения к столбцам:

Ветер - указаны скорость ветра в м/с - средняя за 10 мин, порывы в срок и между сроками (в фигурных скобках) и направление, откуда дует ветер: С - северный, СВ - северо-восточный, В - восточный, ЮВ - юго-восточный, Ю - южный, ЮЗ - юго-западный, З - западный, СЗ - северо-западный.
Видимость - горизонтальная дальность видимости в метрах или километрах. При видимости от 1 до 10 км при отсутствии осадков обычно наблюдается дымка, при ухудшении видимости до 1 км и менее - туман. В сухую погоду видимость может ухудшаться дымом, пылью или мглою.
Явления - указаны атмосферные явления, наблюдавшиеся в срок или в последний час перед сроком; фигурными скобками обозначены явления, наблюдавшиеся между сроками (за 1-3 часа до срока); квадратными скобками обозначены град или гололедные отложения с указанием их диаметра в мм.
Облачность - указаны через наклонную черту общая и нижняя облачность в баллах и высота нижней границы облаков в метрах; квадратными скобками обозначены формы облаков: Ci - перистые, Cs - перисто-слоистые, Cc - перисто-кучевые, Ac - высококучевые, As - высокослоистые, Sc - слоисто-кучевые, Ns - слоисто-дождевые, Cu - кучевые, Cb - кучево-дождевые. Подробнее классификацию облаков см. в Атласе облаков (PDF).
T - Температура воздуха - температура, измеренная на высоте 2 м над землей.
Td - Температура точки росы - температура, при понижении до которой содержащийся в воздухе водяной пар достигнет насыщения.
f - Относительная влажность воздуха - влажноcть воздуха, измеренная на высоте 2 м над землей.
Te - Эффективная температура - температура, которую ощущает одетый по сезону человек в тени. Характеристика душности погоды. При расчете учитывается влияние влажности воздуха и скорости ветра на теплоощущения человека.
Tes - Эффективная температура на солнце - температура, которую ощущает человек, с поправкой на солнечный нагрев. Характеристика знойности погоды. Зависит от высоты солнца над горизонтом, облачности и скорости ветра. Ночью, в пасмурную погоду, а также при ветре 12 м/с и более поправка равна нулю.
P - Атмосферное давление - приведенное к уровню моря атмосферное давление.
Po - Атмосферное давление - измеренное на уровне метеостанции атмосферное давление.
Tmin - Минимальная температура - минимум температуры воздуха на высоте 2 м над землей.
Tmax - Максимальная температура - максимум температуры воздуха на высоте 2 м над землей.
R - Количество осадков - Количество выпавших осадков за период времени, мм. При наведении курсора мыши на число - период времени, за который выпало указанное количество осадков.
R24 - Количество осадков - Количество выпавших осадков за 24 часа, мм.
S - Снежный покров - Высота снежного покрова, см. При наведении курсора мыши на число - состояние снежного покрова и степень покрытия местности в баллах.